This is the latest recevied weather packets stored in our database for station/object YO8SDE-8. If no packets are shown the sender has not sent any weather packets the latest 10 day(s).
| Time | Temp. | Humidity | Pressure | Rain* | Wind** | Luminosity | Snow |
|---|---|---|---|---|---|---|---|
| 1777473068 | 11.67° C | 34% | 1011 hPa | 0 mm | - | - | - |
| 1777472768 | 11.67° C | 34% | 1011 hPa | 0 mm | - | - | - |
| 1777472468 | 11.67° C | 33% | 1011 hPa | 0 mm | - | - | - |
| 1777472168 | 11.67° C | 33% | 1010.9 hPa | 0 mm | - | - | - |
| 1777471868 | 11.67° C | 33% | 1011 hPa | 0 mm | - | - | - |
| 1777471568 | 12.22° C | 33% | 1011 hPa | 0 mm | - | - | - |
| 1777471268 | 12.22° C | 33% | 1010.8 hPa | 0 mm | - | - | - |
| 1777470968 | 12.22° C | 33% | 1010.8 hPa | 0 mm | - | - | - |
| 1777470668 | 12.22° C | 32% | 1010.8 hPa | 0 mm | - | - | - |
| 1777470368 | 12.22° C | 32% | 1010.8 hPa | 0 mm | - | - | - |
| 1777470068 | 12.78° C | 32% | 1010.8 hPa | 0 mm | - | - | - |
| 1777469768 | 12.78° C | 32% | 1010.9 hPa | 0 mm | - | - | - |
| 1777469468 | 13.33° C | 32% | 1010.7 hPa | 0 mm | - | - | - |
| 1777469168 | 13.89° C | 31% | 1010.8 hPa | 0 mm | - | - | - |
| 1777468868 | 13.89° C | 31% | 1010.8 hPa | 0 mm | - | - | - |
| 1777468568 | 13.89° C | 31% | 1010.8 hPa | 0 mm | - | - | - |
| 1777468268 | 13.89° C | 31% | 1010.9 hPa | 0 mm | - | - | - |
| 1777467968 | 13.89° C | 30% | 1010.8 hPa | 0 mm | - | - | - |
| 1777467668 | 13.89° C | 30% | 1010.9 hPa | 0 mm | - | - | - |
| 1777467368 | 14.44° C | 29% | 1010.9 hPa | 0 mm | - | - | - |
| 1777467068 | 15° C | 28% | 1011 hPa | 0 mm | - | - | - |
| 1777466768 | 16.11° C | 27% | 1010.9 hPa | 0 mm | - | - | - |
| 1777466468 | 17.78° C | 27% | 1011 hPa | 0 mm | - | - | - |
| 1777466168 | 18.33° C | 27% | 1010.9 hPa | 0 mm | - | - | - |
| 1777465868 | 17.78° C | 27% | 1010.9 hPa | 0 mm | - | - | - |
* Rain latest hour (hover to see other rain measurements)
** Current wind speed in m/s (hover to see current wind gust speed)